星链-3083 (STARLINK-3083 )

导读 | 星芒AI

STARLINK-3083 是由 SpaceX 开发并发射的星链(Starlink)卫星之一,属于其低轨卫星互联网星座的一部分。该卫星旨在为全球用户提供高速、低延迟的互联网服务,特别是在网络基础设施薄弱的地区。它运行在近地轨道,配备先进通信设备,支持宽带数据传输。STARLINK-3083 的发射进一步增强了星链系统的覆盖能力与稳定性,推动了全球互联网接入的普及。

基本信息
目录编号:
49158
目录名称:
STARLINK-3083
国际标识:
2021-082AE
轨道中心:
EARTH
卫星名称:
星链-3083
卫星全名:
星链-3083 (STARLINK-3083 )
卫星状态:
在轨 (已飞行1557 天)
发射日期:
2021-09-14 UTC
国别 :
美国 (US)
星等 :
--
轨道信息
数据来源 国际轨道数据
星历时间: 2025-12-19T13:40:45+0800
12小时前
查看轨道信息
半长轴: 6782.236km
偏心率: 0.0009368
轨道倾角: 69.973°
近地点辐角 302.115°
升交点赤经 36.476°
平近点角 57.912°
近地点: 397.745km
远地点: 410.453km
周期: 92.644分钟
每日圈数: 15.543308
详细信息
固有亮度:
5
最大亮度:
2.5
卫星平台:
Starlink v1.5
覆盖范围:
全球
运营商:
太空探索技术公司
运营商所在国:
美国
制造商(研发单位):
太空探索技术公司
制造商所在国:
美国
使用方式:
暂无
卫星简介
星链(Starlink)计划是由太空探索技术公司(SpaceX)提出的一个巨型低轨卫星互联网星座项目,计划在2019年至2024年间在太空搭建由约1.2万颗卫星组成的“星链”网络,其中1584颗将部署在地球上空550千米处的近地轨道,并从2020年开始工作。该卫星仍在工作。
2D轨道图
3D轨道图
轨道高度分析图
轨道倾角分析图
轨道综合分析图
查看轨道综合分析图